Header for Extended Forecast Station List Page

Search by: ID | Name | Date | Parm | Value | Avg | % Avg
Sort by: ID | Name | Date | Parm | Value | Avg | % Avg

Enter search or view all records.

Click on id for station plot
#IDNameDateParmValueAvg% Avg
0LYDM8KOOTENAI-LIBBY DAM06-29-2015INFLOW (KAF)1264272946
1LEOI1KOOTENAI-AT LEONIA06-29-2015DISCHARGE (KAF)1869282266
2BFEI1KOOTENAI-AT BONNERS FERRY06-29-2015STAGE (FT)MMM
3FCFM8NF FLATHEAD-NEAR COLUMBIA FALLS06-29-2015DISCHARGE (KAF)26350752
4WGCM8MF FLATHEAD-NEAR WEST GLACIER06-29-2015DISCHARGE (KAF)21144947
5HHWM8SF FLATHEAD-HUNGRY HORSE DAM06-29-2015INFLOW (KAF)20742549
6CFMM8FLATHEAD-AT COLUMBIA FALLS06-29-2015DISCHARGE (KAF)1043164363
7DLGM8CLARK FORK-AT DEER LODGE06-29-2015DISCHARGE (KAF)284365
8DRMM8CLARK FORK-NR DRUMMOND06-29-2015DISCHARGE (KAF)92MM
9RCCM8ROCK CREEK-NEAR CLINTON06-29-2015DISCHARGE (KAF)619763
10BONM8BLACKFOOT-NEAR BONNER06-29-2015DISCHARGE (KAF)11325245
11ABOM8CLARK FORK-ABOVE MISSOULA06-29-2015DISCHARGE (KAF)26849954
12BITM8BITTERROOT-NEAR MISSOULA06-29-2015DISCHARGE (KAF)21935062
13BELM8CLARK FORK-BELOW MISSOULA06-29-2015DISCHARGE (KAF)48886057
14STRM8ST. REGIS-NEAR ST. REGIS06-29-2015DISCHARGE (KAF)254259
15SRGM8CLARK FORK-AT ST REGIS06-29-2015DISCHARGE (KAF)651111958
16KERM8FLATHEAD-KERR DAM06-29-2015INFLOW (KAF)1066197654
17NOXM8CLARK FORK-NOXON RAPIDS DAM06-29-2015INFLOW (KAF)2058368956
18CABI1CLARK FORK-CABINET GORGE DAM06-29-2015INFLOW (KAF)2271395357
19PRTI1PRIEST-NEAR PRIEST RIVER06-29-2015DISCHARGE (KAF)8616751
20ALFW1PEND OREILLE-ALBENI FALLS DAM06-29-2015INFLOW (KAF)2310422255
21HOPI1PEND OREILLE-PEND OREILLE LAKE NR HOPE06-29-2015LAKE ELEVATION (FT)MMM
22COEI1COEUR D ALENE-COEUR D ALENE LAKE06-29-2015INFLOW (KAF)11127441
23SPOW1SPOKANE-AT SPOKANE06-29-2015DISCHARGE (KAF)193MM
24LLKW1SPOKANE-AT LONGLAKE06-29-2015INFLOW (KAF)33862454
25SATI1ST MARIES-NEAR SANTA06-29-2015DISCHARGE (KAF)92145
26SJMI1ST JOE-AT ST MARIES06-29-2015STAGE (FT)MMM
27CIBW1COLUMBIA-AT INTL BOUNDARY06-29-2015DISCHARGE (KAF)20017MM
28LAUW1KETTLE-AT LAURIER06-29-2015DISCHARGE (KAF)9628434
29GCDW1COLUMBIA-GRAND COULEE DAM06-29-2015INFLOW (KAF)203872616878
30CHJW1COLUMBIA-CHIEF JOSEPH DAM06-29-2015INFLOW (KAF)190192302683
31TONW1OKANOGAN-NEAR TONASKET06-29-2015DISCHARGE (KAF)21044048
32PATW1METHOW-NEAR PATEROS06-29-2015DISCHARGE (KAF)10822348
33WELW1COLUMBIA-WELLS DAM06-29-2015INFLOW (KAF)193452377181
34CHDW1CHELAN-LAKE CHELAN DAM06-29-2015INFLOW (KAF)11238429
35RRHW1COLUMBIA-ROCKY REACH DAM06-29-2015INFLOW (KAF)196452436681
36ARDW1ENTIAT-NEAR ARDENVOIR06-29-2015DISCHARGE (KAF)285947
37PESW1WENATCHEE-AT PESHASTIN06-29-2015DISCHARGE (KAF)16445436
38WANW1COLUMBIA-WANAPUM DAM06-29-2015INFLOW (KAF)199912673275
39PRWW1COLUMBIA-PRIEST RAPIDS DAM06-29-2015INFLOW (KAF)199992719174
40KEDW1YAKIMA-KEECHELUS LAKE06-29-2015INFLOW (KAF)142652
41KADW1KACHESS-KACHESS DAM06-29-2015INFLOW (KAF)61832
42EASW1YAKIMA-AT EASTON06-29-2015DISCHARGE (KAF)9475125
43CLUW1CLE ELUM-CLE ELUM LAKE06-29-2015INFLOW (KAF)3010329
44TNAW1TEANAWAY-BELOW FORKS06-29-2015DISCHARGE (KAF)41038
45UMTW1YAKIMA-AT UMTANUM06-29-2015DISCHARGE (KAF)48463876
46BUDW1BUMPING-BUMPING LAKE DAM06-29-2015INFLOW (KAF)113137
47CLFW1NACHES-NEAR CLIFFDEL06-29-2015DISCHARGE (KAF)4410941
48RILW1TIETON-RIMROCK LAKE NEAR RIMROCK06-29-2015INFLOW (KAF)618572
49NACW1NACHES-NEAR NACHES06-29-2015DISCHARGE (KAF)9517156
50PARW1YAKIMA-NEAR PARKER06-29-2015DISCHARGE (KAF)217116186
51KIOW1YAKIMA-AT KIONA06-29-2015DISCHARGE (KAF)479430111
52IPDI1HENRYS FORK-ISLAND PARK DAM06-29-2015INFLOW (KAF)10615369
53CHEI1FALL RIVER-NEAR CHESTER06-29-2015DISCHARGE (KAF)458454
54ANTI1HENRYS FORK-AT ST. ANTHONY06-29-2015DISCHARGE (KAF)18031657
55TEAI1TETON-NEAR ST. ANTHONY06-29-2015DISCHARGE (KAF)16019981
56REXI1HENRYS FORK-AT REXBURG06-29-2015DISCHARGE (KAF)20736657
57JLKW4SNAKE-JACKSON LAKE AT DAM06-29-2015INFLOW (KAF)13126749
58JKSW4SNAKE-NEAR JACKSON06-29-2015DISCHARGE (KAF)743104571
59ALPW4SNAKE-NEAR ALPINE06-29-2015DISCHARGE (KAF)888127370
60PLDI1SF SNAKE-PALISADES DAM06-29-2015INFLOW (KAF)1227171172
61HEII1SNAKE-NEAR HEISE06-29-2015DISCHARGE (KAF)1788208086
62RIDI1WILLOW CREEK-RIRIE DAM06-29-2015INFLOW (KAF)5686
63SIFI1SNAKE-AB EAGLE ROCK NR IDAHO FALLS06-29-2015DISCHARGE (KAF)923138067
64SHYI1SNAKE-NEAR SHELLEY06-29-2015DISCHARGE (KAF)793108473
65SNAI1SNAKE-AT BLACKFOOT06-29-2015DISCHARGE (KAF)22562836
66BFTI1SNAKE-NEAR BLACKFOOT06-29-2015DISCHARGE (KAF)21458037
67PIHI1PORTNEUF-AT POCATELLO06-29-2015DISCHARGE (KAF)102444
68AFRI1SNAKE-AMERICAN FALLS RESERVOIR06-29-2015INFLOW (KAF)754122761
69MILI1SNAKE-AT MILNER06-29-2015DISCHARGE (KAF)419842
70HOTI1BRUNEAU-NEAR HOT SPRINGS06-29-2015DISCHARGE (KAF)93031
71SWAI1SNAKE-BELOW SWAN FALLS06-29-2015DISCHARGE (KAF)1483195876
72HWRI1BIG LOST-AT HOWELL RANCH NEAR CHILLY06-29-2015DISCHARGE (KAF)356653
73MACI1BIG LOST-MACKAY RESERVOIR NEAR MACKAY06-29-2015INFLOW (KAF)445383
74HALI1BIG WOOD-AT HAILEY06-29-2015DISCHARGE (KAF)458652
75MAGI1BIG WOOD-MAGIC DAM06-29-2015INFLOW (KAF)64514
76LWRI1LITTLE WOOD-LITTLE WOOD DAM06-29-2015INFLOW (KAF)71935
77OWYO3OWYHEE-BELOW OWYHEE DAM06-29-2015INFLOW (KAF)65212
78ARAI1SF BOISE-ANDERSON RANCH DAM06-29-2015INFLOW (KAF)6410561
79LUCI1BOISE-LUCKY PEAK DAM06-29-2015INFLOW (KAF)408MM
80BIGI1BOISE-AT GLENWOOD BRIDGE06-29-2015DISCHARGE (KAF)2819714
81PARI1BOISE-NEAR PARMA06-29-2015DISCHARGE (KAF)6122327
82WRMO3MALHEUR-WARM SPRINGS DAM06-29-2015INFLOW (KAF)32127
83BERO3MALHEUR-AGENCY VALLEY DAM06-29-2015INFLOW (KAF)5772
84BULO3BULLY CREEK-BULLY CREEK DAM06-29-2015INFLOW (KAF)M0M
85VALO3MALHEUR-NEAR VALE06-29-2015DISCHARGE (KAF)0292
86CSDI1NF PAYETTE-CASCADE DAM06-29-2015INFLOW (KAF)617482
87DEDI1DEADWOOD-NEAR LOWMAN06-29-2015INFLOW (KAF)133043
88EMMI1PAYETTE-NEAR EMMETT06-29-2015DISCHARGE (KAF)9845522
89WSRI1WEISER-NEAR WEISER06-29-2015DISCHARGE (KAF)475979
90WEII1SNAKE-AT WEISER06-29-2015DISCHARGE (KAF)1897291565
91BRNI1SNAKE-BROWNLEE DAM06-29-2015INFLOW (KAF)1985297467
92WHBI1SALMON-AT WHITEBIRD06-29-2015DISCHARGE (KAF)997176557
93TRYO3GRANDE RONDE-TROY06-29-2015DISCHARGE (KAF)8926833
94ANAW1SNAKE-NEAR ANATONE06-29-2015DISCHARGE (KAF)3386519565
95ORFI1CLEARWATER-AT OROFINO06-29-2015DISCHARGE (KAF)32978742
96DWRI1NF CLEARWATER-DWORSHAK DAM06-29-2015INFLOW (KAF)20448642
97SPDI1CLEARWATER-AT SPALDING06-29-2015DISCHARGE (KAF)16871427118
98LGDW1SNAKE-LOWER GRANITE DAM06-29-2015INFLOW (KAF)5072669276
99LGSW1SNAKE-LITTLE GOOSE DAM06-29-2015INFLOW (KAF)5067672275
100LMNW1SNAKE-LOWER MONUMENTAL DAM06-29-2015INFLOW (KAF)5057674375
101IHDW1SNAKE-ICE HARBOR DAM06-29-2015INFLOW (KAF)5051666176
102TCHW1WALLA WALLA-NEAR TOUCHET06-29-2015DISCHARGE (KAF)2821
103MCDW1COLUMBIA-MCNARY DAM06-29-2015INFLOW (KAF)259113482974
104GIBO3UMATILLA-NEAR GIBBON06-29-2015DISCHARGE (KAF)61253
105PDTO3UMATILLA-AT PENDLETON06-29-2015DISCHARGE (KAF)51339
106MYKO3MCKAY CREEK-NEAR PILOT ROCK06-29-2015DISCHARGE (KAF)M0M
107UMAO3UMATILLA-NEAR UMATILLA06-29-2015DISCHARGE (KAF)175322
108MONO3NF JOHN DAY-AT MONUMENT06-29-2015DISCHARGE (KAF)175035
109SERO3JOHN DAY-AT SERVICE CK06-29-2015DISCHARGE (KAF)147420
110JDAO3COLUMBIA-JOHN DAY DAM06-29-2015INFLOW (KAF)262533533374
111MODO3DESCHUTES-AT MOODY NR BIGGS06-29-2015DISCHARGE (KAF)1018108494
112TDAO3COLUMBIA-THE DALLES DAM06-29-2015INFLOW (KAF)266983398879
113PITW1KLICKITAT-NEAR PITT06-29-2015DISCHARGE (KAF)16020977
114HODO3HOOD-NEAR TUCKER BRIDGE06-29-2015DISCHARGE (KAF)649270
115UNDW1WHITE SALMON-NEAR UNDERWOOD06-29-2015DISCHARGE (KAF)13016977
116BONO3COLUMBIA-BONNEVILLE DAM06-29-2015INFLOW (KAF)27062MM